166  
ASCA44 KEWX 242220  
RWRMX  
 
LATIN AMERICA AND CARIBBEAN REGIONAL WEATHER ROUNDUP  
NATIONAL WEATHER SERVICE AUSTIN/SAN ANTONIO TX  
500 PM CDT TUE APR 24 2018  
 
NOTE: "FAIR" INDICATED FEW OR NO CLOUDS BELOW 12,000 FEET WITH NO  
SIGNIFICANT WEATHER AND/OR S TO VISIBILITY
.  
 
BAJA CALIFORNIA  
 
CITY SKY/WX TMP DP RH WIND PRES REMARKS
 
LORETO PTSUNNY 90 61 37 CALM 29.87F  
LA PAZ MOSUNNY 93 27 9 N9 29.89F  
MEXICALI PTSUNNY 95 32 11 S7 29.84F HX 90  
S.J. DEL CABO PTSUNNY 90 32 12 E17 29.90F  
TIJUANA PTSUNNY 66 52 59 W8 30.03  
 
NORTHWESTERN MEXICO  
 
CITY SKY/WX TMP DP RH WIND PRES REMARKS
 
CULIACAN N/A N/A N/A N/A MISG N/A  
DURANGO PTSUNNY 84 27 12 NW10 30.12F  
GUAYMAS MOSUNNY 90 54 29 S17 29.82F  
HERMOSILLO MOSUNNY 100 30 8 SW12 29.88F HX 94  
CD. JUAREZ MOSUNNY 90 19 7 SW13 30.00F  
LOS MOCHIS PTSUNNY 93 34 12 W14 29.88F  
OBREGON PTSUNNY 97 32 10 W10 29.82F HX 91  
 
NORTHEASTERN MEXICO  
 
CITY SKY/WX TMP DP RH WIND PRES REMARKS
 
CHIHUAHUA MOSUNNY 91 32 12 NW12 30.00F  
MATAMOROS N/A 86 54 32 SE16 29.98F  
MONCLOVA PTSUNNY 88 50 27 N13 29.92  
MONTERREY CLOUDY 79 66 65 E13 29.96F  
NUEVO LAREDO MOSUNNY 91 64 40 S14 29.91F HX 93  
PIEDRAS NEGRAS MOSUNNY 91 64 40 SE14 29.92F HX 93  
REYNOSA MOSUNNY 88 55 33 E16 29.95F  
SALTILLO PTSUNNY 70 52 52 N21 30.14F  
TORREON PTSUNNY 91 52 25 N8 29.96  
CD. VICTORIA RAIN 79 72 78 CALM 29.96F  
 
WESTERN MEXICO  
 
CITY SKY/WX TMP DP RH WIND PRES REMARKS
 
AGUASCALIENTES MOSUNNY 86 27 11 W15 30.15F  
COLIMA MOSUNNY 86 57 37 W17 29.97F  
DEL BAJIO PTSUNNY 86 39 19 W6 30.19F  
GUADALAJARA PTSUNNY 90 30 12 N7 30.08F  
MANZANILLO MOSUNNY 84 72 65 SW9 29.86  
MAZATLAN PTSUNNY 84 59 42 SW5 29.88F  
P. VALLARTA PTSUNNY 82 68 61 SW10 29.87F  
URUAPAN MOSUNNY 81 54 39 S7 30.13F  
ZACATECAS PTSUNNY 84 27 12 SW16 30.18  
 
CENTRAL MEXICO  
 
CITY SKY/WX TMP DP RH WIND PRES REMARKS
 
CUERNAVACA CLOUDY 81 55 41 CALM 30.04F  
MEXICO CITY CLOUDY 73 45 35 NW8 30.26F  
MORELIA PTSUNNY N/A N/A N/A NE3 30.14  
POZA RICA PTSUNNY 84 72 65 E12 29.97F  
PUEBLA PTSUNNY 70 50 49 E8 30.27S  
QUERETARO PTSUNNY 82 43 24 NW12 30.19F  
S. LUIS POTOSI PTSUNNY 82 45 26 NE20 30.12  
TAMPICO PTSUNNY 82 73 74 MISG 29.95F  
TOLUCA CLOUDY 64 48 55 NE5 30.36  
 
SOUTHERN MEXICO  
 
CITY SKY/WX TMP DP RH WIND PRES REMARKS
 
ACAPULCO MOSUNNY 84 77 79 W13 29.81F HX 94  
B. DE HUATULCO MOSUNNY N/A N/A N/A CALM 29.86F  
OAXACA CLOUDY 86 43 22 SE6 30.09F  
P. ESCONDIDO PTSUNNY 86 75 70 W10 29.93F HX 95  
ZIHUATANEJO PTSUNNY 88 73 62 SW12 29.85 HX 96  
 
YUCATAN PENINSULA  
 
CITY SKY/WX TMP DP RH WIND PRES REMARKS
 
CAMPECHE MOSUNNY 86 77 74 NW12G23 29.84F HX 97  
CANCUN PTSUNNY 82 75 78 SE10 29.93S  
CHETUMAL MOSUNNY 88 75 66 SE17 29.91F HX 97  
CD. DEL CARMEN PTSUNNY 88 77 70 N12 29.89F HX 100  
COZUMEL MOSUNNY 86 73 66 S9 29.92F HX 93  
MERIDA TSTM 72 70 94 SW7 29.96R  
MINATITLAN SUNNY 82 79 89 N17 29.87F HX 93  
TAPACHULA MOSUNNY 90 77 66 W12 29.81F HX 102  
TUX. GUTIERREZ MOSUNNY 91 68 46 NW24 29.86F HX 95  
VILLAHERMOSA MOSUNNY 91 75 59 N9 29.89F HX 102  
 
CENTRAL AMERICA  
 
CITY SKY/WX TMP DP RH WIND PRES REMARKS
 
BELIZE CITY MOSUNNY 86 77 74 E10 29.92F HX 97  
MANAGUA PTCLDY 93 72 49 SE16 29.77S HX 100  
 
CARIBBEAN  
 
CITY SKY/WX TMP DP RH WIND PRES REMARKS
 
ARUBA MOSUNNY 84 75 74 E24 29.83S HX 92  
CURACAO N/A 82 73 74 E13 29.89R  
KINGSTON MOSUNNY 81 75 83 NE6 29.92S  
NASSAU MOSUNNY 81 72 74 SE7 29.96S  
SAN JUAN PTCLDY 81 72 74 E18 30.00R  
SANTO DOMINGO MOSUNNY 82 73 74 SE12 29.94S  
ST. CROIX PTCLDY 82 70 65 NE10 30.00  
ST. KITTS PTCLDY 79 72 78 NE12 29.97  
ST. MAARTEN PTCLDY 81 68 65 NE14 30.00R  
ST. THOMAS CLEAR 82 72 69 E10 29.99  
 

 
 
 
 
CLICK HERE TO GO TO PREVIOUS BULLETINS.

The Nexlab HPC Page Main Text Page